ATLAS AGENA B DEB, 630

Orbit data source: Space-Track

ATLAS AGENA B DEB, 630 is space debris in LEO originally from a launch on Fri, 19 Jul 1963 UTC launched from the Air Force Western Test Range (AFWTR). Debris objects in space refer to the collection of defunct objects orbiting the Earth. Examples of debris include non-operational satellites, rocket bodies, and fragments generated from explosions, collisions, or faulty payload assembly.

Loading next visibility...
Identifier
630, 1963-030C
Orbit
LEO
Country
Flag of USUS
Related business
Manufacturer
Unknown
Mission
Spacecraft
Bus & Motor
Unknown
Mass
~10 kg wet, ~10 kg dry
Launch date (UTC)
1963-07-19 (63 years ago)
Launch vehicle
Unknown
Launch site
Air Force Western Test Range (AFWTR)
Object type
Payload
Rocket body
Debris
Shape & HBR
Unknown
Radar Cross Section
Medium (>0.1 m² and <1 m²)

Expand to show TLE details & history
Last TLE update: 10 hours ago

TLE from 10 hours ago
0 ATLAS AGENA B DEB
1   630U 63030C   26036.48625787 -.00000020  00000-0 -10910-1 0  9991
2   630  88.4449 210.2440 0056567  14.6675 345.5804  8.59862916963516
Epoch: 2026-02-05T11:40Z
TLE epoch observation values (Epoch: 2026-02-05T11:40:12.679Z)
Latitude
-0.00003°
Longitude
-100.44663°
Altitude
3,633.195 km
Speed
6.328 km/s
True Right ascension
14h 00m 58s
True Declination
0° 00' 00"
Sunlit
Object was in daylight at epoch
Visualization orbit readout
Latitude
Unknown
Longitude
Unknown
Altitude
Unknown
Speed
Unknown
Apparent Right ascension
Unknown
Apparent Declination
Unknown
Sunlit
N/A
Visualization observer readout
Local Sidereal Time
00:06:22
Azimuth
Unknown
Elevation
Unknown
Doppler factor
Unknown
Orbital elements
Apogee altitude
3,740.876 km
Perigee altitude
3,627.04 km
Semi-major axis
10,062.095 km
Eccentricity
0.00566
Inclination
88.4449°
RAAN
210.244°
Arg. of periapsis
14.6675°
True anomaly
345.41787°
Mean anomaly
345.5804°
Eccentric anomaly
345.49925°
Mean motion
2.15036 °/min
Orbital period
167.41 mins
BSTAR
-0.01091
Loading maneuver chart data...
Computing Atmospheric mass density...
Loading historical data...
Loading historical data...
Loading historical data...
Loading historical data...
Loading historical data...
Loading historical data...
Loading historical data...

Documentation

Showing up to 5 results
|